When you browse on this site, cookies collect data to enhance your experience and personalize the content and advertising you see.
Visit our Privacy Policy to learn more. By continuing to use the site, you agree to this use of cookies and data.
  • Em Portugal
  • Lista de países
  • Para 7 dias
  • Temperatura da água
  • Mapas de satélite
  • Mapa do tempo
  • Widgets de tempo
  • user-avatar
    Iniciar Sessão

    Previsão horária em Saida

    Hoje, 20 Março, Quarta-feira

    Tempo Temperatura Precipitação Vento Pressão Humidade
    00:00 +16°C° 0 mm 3 m/s 762 mmHg 69%
    01:00 +16°C° 0 mm 3 m/s 762 mmHg 70%
    02:00 +16°C° 0 mm 2 m/s 761 mmHg 70%
    03:00 +16°C° 0 mm 2 m/s 761 mmHg 71%
    04:00 +16°C° 0 mm 2 m/s 761 mmHg 71%
    05:00 +15°C° 0 mm 2 m/s 761 mmHg 72%
    06:00 +17°C° 0 mm 2 m/s 761 mmHg 68%
    07:00 +18°C° 0 mm 2 m/s 762 mmHg 64%
    08:00 +20°C° 0 mm 2 m/s 762 mmHg 60%
    09:00 +20°C° 0 mm 2 m/s 762 mmHg 59%
    10:00 +21°C° 0 mm 2 m/s 762 mmHg 58%
    11:00 +22°C° 0 mm 3 m/s 762 mmHg 58%
    12:00 +22°C° 0 mm 3 m/s 761 mmHg 58%
    13:00 +22°C° 0 mm 3 m/s 761 mmHg 58%
    14:00 +22°C° 0 mm 3 m/s 761 mmHg 58%
    15:00 +21°C° 0 mm 3 m/s 761 mmHg 60%
    16:00 +21°C° 0 mm 3 m/s 760 mmHg 62%
    17:00 +20°C° 0 mm 2 m/s 760 mmHg 63%
    18:00 +19°C° 0 mm 2 m/s 760 mmHg 65%
    19:00 +18°C° 0 mm 2 m/s 761 mmHg 66%
    20:00 +17°C° 0 mm 2 m/s 761 mmHg 67%
    21:00 +17°C° 0 mm 2 m/s 761 mmHg 68%
    22:00 +18°C° 0 mm 1 m/s 761 mmHg 69%
    23:00 +18°C° 0 mm 1 m/s 761 mmHg 70%

    Amanhã, 21 Março, Quinta-feira

    Tempo Temperatura Precipitação Vento Pressão Humidade
    00:00 +16°C° 0 mm 1 m/s 761 mmHg 70%
    01:00 +16°C° 0 mm 1 m/s 761 mmHg 70%
    02:00 +16°C° 0 mm 1 m/s 761 mmHg 70%
    03:00 +16°C° 0 mm 1 m/s 761 mmHg 71%
    04:00 +16°C° 0 mm 1 m/s 761 mmHg 71%
    05:00 +15°C° 0 mm 0 m/s 761 mmHg 71%
    06:00 +18°C° 0 mm 1 m/s 761 mmHg 67%
    07:00 +20°C° 0 mm 1 m/s 762 mmHg 62%
    08:00 +21°C° 0 mm 1 m/s 762 mmHg 58%
    09:00 +22°C° 0 mm 1 m/s 762 mmHg 57%
    10:00 +21°C° 0 mm 2 m/s 762 mmHg 57%
    11:00 +23°C° 0 mm 2 m/s 762 mmHg 57%
    12:00 +23°C° 0 mm 2 m/s 761 mmHg 58%
    13:00 +23°C° 0 mm 2 m/s 761 mmHg 60%
    14:00 +22°C° 0 mm 3 m/s 761 mmHg 61%
    15:00 +21°C° 0 mm 2 m/s 761 mmHg 64%
    16:00 +21°C° 0 mm 2 m/s 760 mmHg 66%
    17:00 +20°C° 0 mm 2 m/s 760 mmHg 68%
    18:00 +19°C° 0 mm 2 m/s 761 mmHg 70%
    19:00 +18°C° 0 mm 2 m/s 761 mmHg 72%
    20:00 +17°C° 0 mm 2 m/s 761 mmHg 74%
    21:00 +17°C° 0 mm 2 m/s 761 mmHg 72%
    22:00 +18°C° 0 mm 1 m/s 762 mmHg 70%
    23:00 +18°C° 0 mm 1 m/s 762 mmHg 68%

    Depois de amanhã, 22 Março, Sexta-feira

    Tempo Temperatura Precipitação Vento Pressão Humidade
    00:00 +16°C° 0 mm 1 m/s 762 mmHg 69%
    01:00 +16°C° 0 mm 1 m/s 762 mmHg 69%
    02:00 +16°C° 0 mm 1 m/s 762 mmHg 70%
    03:00 +16°C° 0 mm 2 m/s 762 mmHg 71%
    04:00 +16°C° 0 mm 2 m/s 762 mmHg 72%
    05:00 +15°C° 0 mm 2 m/s 762 mmHg 72%
    06:00 +17°C° 0 mm 2 m/s 762 mmHg 68%
    07:00 +18°C° 0 mm 2 m/s 762 mmHg 63%
    08:00 +21°C° 0 mm 1 m/s 763 mmHg 58%
    09:00 +20°C° 0 mm 2 m/s 762 mmHg 57%
    10:00 +21°C° 0 mm 2 m/s 762 mmHg 55%
    11:00 +22°C° 0 mm 3 m/s 762 mmHg 54%
    12:00 +22°C° 0 mm 3 m/s 761 mmHg 55%
    13:00 +21°C° 0 mm 4 m/s 761 mmHg 57%
    14:00 +21°C° 0 mm 4 m/s 761 mmHg 58%
    15:00 +21°C° 0 mm 4 m/s 760 mmHg 61%
    16:00 +20°C° 0 mm 3 m/s 760 mmHg 63%
    17:00 +19°C° 0 mm 3 m/s 760 mmHg 66%
    18:00 +19°C° 0 mm 3 m/s 760 mmHg 69%
    19:00 +18°C° 0 mm 2 m/s 761 mmHg 73%
    20:00 +17°C° 0 mm 2 m/s 761 mmHg 76%
    21:00 +17°C° 0 mm 2 m/s 761 mmHg 76%
    22:00 +16°C° 0 mm 1 m/s 761 mmHg 76%
    23:00 +16°C° 0 mm 1 m/s 761 mmHg 76%

    23 Março, Sábado

    Tempo Temperatura Precipitação Vento Pressão Humidade
    00:00 +16°C° 0 mm 2 m/s 761 mmHg 75%
    01:00 +16°C° 0 mm 2 m/s 761 mmHg 74%
    02:00 +16°C° 0 mm 3 m/s 761 mmHg 73%
    03:00 +16°C° 0 mm 2 m/s 760 mmHg 73%
    04:00 +16°C° 0 mm 2 m/s 760 mmHg 73%
    05:00 +15°C° 0 mm 1 m/s 760 mmHg 72%
    06:00 +18°C° 0 mm 1 m/s 761 mmHg 68%
    07:00 +19°C° 0 mm 1 m/s 761 mmHg 63%
    08:00 +18°C° 0 mm 0 m/s 761 mmHg 59%
    09:00 +21°C° 0 mm 1 m/s 761 mmHg 58%
    10:00 +20°C° 0 mm 2 m/s 761 mmHg 57%
    11:00 +21°C° 0 mm 2 m/s 760 mmHg 56%
    12:00 +21°C° 0.1 mm 3 m/s 760 mmHg 56%
    13:00 +21°C° 0.1 mm 3 m/s 760 mmHg 57%
    14:00 +21°C° 0.1 mm 3 m/s 759 mmHg 57%
    15:00 +20°C° 0 mm 3 m/s 759 mmHg 59%
    16:00 +20°C° 0 mm 3 m/s 759 mmHg 60%
    17:00 +19°C° 0 mm 3 m/s 759 mmHg 61%
    18:00 +18°C° 0 mm 3 m/s 760 mmHg 64%
    19:00 +17°C° 0 mm 2 m/s 760 mmHg 68%
    20:00 +16°C° 0 mm 2 m/s 760 mmHg 71%
    21:00 +16°C° 0 mm 2 m/s 760 mmHg 72%
    22:00 +16°C° 0 mm 2 m/s 760 mmHg 73%
    23:00 +16°C° 0 mm 1 m/s 760 mmHg 74%

    24 Março, Domingo

    Tempo Temperatura Precipitação Vento Pressão Humidade
    00:00 +16°C° 0 mm 1 m/s 760 mmHg 75%
    01:00 +16°C° 0 mm 1 m/s 760 mmHg 76%
    02:00 +15°C° 0 mm 0 m/s 760 mmHg 77%
    03:00 +16°C° 0 mm 1 m/s 760 mmHg 77%
    04:00 +15°C° 0 mm 1 m/s 760 mmHg 77%
    05:00 +15°C° 0 mm 1 m/s 760 mmHg 77%
    06:00 +16°C° 0 mm 1 m/s 760 mmHg 73%
    07:00 +19°C° 0 mm 1 m/s 760 mmHg 69%
    08:00 +19°C° 0 mm 2 m/s 761 mmHg 66%
    09:00 +19°C° 0 mm 2 m/s 761 mmHg 64%
    10:00 +20°C° 0 mm 2 m/s 761 mmHg 63%
    11:00 +21°C° 0 mm 2 m/s 761 mmHg 61%
    12:00 +21°C° 0.5 mm 2 m/s 760 mmHg 63%
    13:00 +20°C° 0.5 mm 2 m/s 760 mmHg 66%
    14:00 +20°C° 0.5 mm 2 m/s 759 mmHg 68%
    15:00 +20°C° 0.4 mm 2 m/s 759 mmHg 69%
    16:00 +20°C° 0.4 mm 2 m/s 759 mmHg 69%
    17:00 +19°C° 0.4 mm 2 m/s 759 mmHg 70%
    18:00 +19°C° 0.1 mm 2 m/s 759 mmHg 72%
    19:00 +18°C° 0.1 mm 2 m/s 759 mmHg 73%
    20:00 +17°C° 0.1 mm 3 m/s 759 mmHg 75%
    21:00 +17°C° 0.2 mm 2 m/s 759 mmHg 75%
    22:00 +17°C° 0.2 mm 2 m/s 759 mmHg 75%
    23:00 +18°C° 0.2 mm 1 m/s 759 mmHg 75%

    25 Março, Segunda-feira

    Tempo Temperatura Precipitação Vento Pressão Humidade
    00:00 +18°C° 0.3 mm 1 m/s 759 mmHg 74%
    01:00 +18°C° 0.3 mm 1 m/s 759 mmHg 74%
    02:00 +18°C° 0.3 mm 1 m/s 758 mmHg 74%
    03:00 +18°C° 0 mm 1 m/s 758 mmHg 74%
    04:00 +16°C° 0 mm 1 m/s 758 mmHg 74%
    05:00 +16°C° 0 mm 1 m/s 758 mmHg 74%
    06:00 +18°C° 0 mm 1 m/s 759 mmHg 71%
    07:00 +19°C° 0 mm 1 m/s 759 mmHg 68%
    08:00 +20°C° 0 mm 1 m/s 759 mmHg 64%
    09:00 +20°C° 0.4 mm 2 m/s 759 mmHg 65%
    10:00 +20°C° 0.4 mm 2 m/s 759 mmHg 65%
    11:00 +20°C° 0.4 mm 2 m/s 759 mmHg 65%
    12:00 +20°C° 0.4 mm 3 m/s 758 mmHg 65%
    13:00 +20°C° 0.4 mm 3 m/s 758 mmHg 65%
    14:00 +20°C° 0.4 mm 3 m/s 758 mmHg 66%
    15:00 +20°C° 0.1 mm 3 m/s 758 mmHg 67%
    16:00 +19°C° 0.1 mm 3 m/s 757 mmHg 69%
    17:00 +19°C° 0.1 mm 3 m/s 757 mmHg 71%
    18:00 +18°C° 0 mm 3 m/s 758 mmHg 74%
    19:00 +17°C° 0 mm 2 m/s 758 mmHg 77%
    20:00 +16°C° 0 mm 2 m/s 758 mmHg 80%
    21:00 +16°C° 0 mm 2 m/s 758 mmHg 79%
    22:00 +16°C° 0 mm 2 m/s 759 mmHg 79%
    23:00 +17°C° 0 mm 2 m/s 759 mmHg 78%
    Mostrar mais